sat.trackr.live / text

‹ back to catalog

STARLINK-31457

NORAD 59414 · 2024-064S

PAYLOAD ACTIVE UNKNOWN

§ Identity

Operator
Country
US
Launch date
2024-04-05
Launch site
AFETR
Launch vehicle
Mass (kg)
RCS (m²)

Purposes: comms

External: N2YO · Heavens-Above · Gunter

§ Orbital elements

Epoch: 2026-09-21T15:30:33.230016Z

Period
94.27 min
Inclination
43.0035°
Eccentricity
0.0001014
Mean motion
15.27579017 rev/d
Perigee alt
482.4 km
Apogee alt
483.7 km
Semi-major
6,861.2 km
B*
1.9632e-5
RAAN
22.6604°
Arg perigee
239.6996°
Mean anomaly
120.3755°
Rev number
13,927

§ Raw data

STARLINK-314571 59414U 24064S   26264.64621794  .00000278  00000+0  19632-4 0  99992 59414  43.0035  22.6604 0001014 239.6996 120.3755 15.27579017139279

JSON: /api/v1/satellites/59414 · /tle

For live sub-satellite position, see the globe view (requires WebGL).

§ Visibility from observer

Set your observer location to see the next 7 days of passes ≥ 10°. The values pass through the URL so the page stays shareable.

No JS? Fill the form by hand. The geolocation button needs JavaScript.